EW5212 Weather Reports


time (UTC)temp
F
wind
direction
speed
knots
gust
knots
rain 1hr
in
rain 24hr
in
rain mn
in
humidity
%
barometer
mb
20260506033015 72 270 1.7 5.2 0.00 0.00 0.00 62 1013.9
20260506032017 72 90 1.7 6.1 0.00 0.00 0.00 61 1013.8
20260506031015 72 90 2.6 9.6 0.00 0.00 0.00 61 1013.8
20260506030017 73 0 0.9 6.1 0.00 0.00 0.00 60 1013.6
20260506025017 73 338 1.7 4.3 0.00 0.00 0.00 60 1013.7
20260506024017 73 23 0.9 3.5 0.00 0.00 0.00 59 1013.7
20260506023017 73 90 0.9 4.3 0.00 0.00 0.00 59 1013.7
20260506022017 73 293 1.7 4.3 0.00 0.00 0.00 58 1013.7
20260506021017 74 270 0.9 6.1 0.00 0.00 0.00 57 1013.6
20260506020017 74 270 0.9 5.2 0.00 0.00 0.00 57 1013.5
20260506015017 74 0 1.7 10.4 0.00 0.00 0.00 56 1013.5
20260506014037 75 113 1.7 7.0 0.00 0.00 0.00 56 1013.4
20260506013017 75 293 1.7 7.8 0.00 0.00 0.00 55 1013.3
20260506012037 75 293 0.9 4.3 0.00 0.00 0.00 54 1013.2
20260506011017 75 0 1.7 6.1 0.00 0.00 0.00 54 1013.0
20260506010016 76 315 1.7 4.3 0.00 0.00 0.00 53 1013.1
20260506005038 76 338 1.7 7.0 0.00 0.00 0.00 53 1013.0
20260506004017 76 293 0.9 3.5 0.00 0.00 0.00 52 1012.8
20260506003017 77 23 0.9 3.5 0.00 0.00 0.00 51 1012.8
20260506002017 77 113 0.9 3.5 0.00 0.00 0.00 50 1012.7
20260506001017 77 90 1.7 6.1 0.00 0.00 0.00 49 1012.6
20260506000017 78 338 1.7 4.3 0.00 0.00 0.00 49 1012.5
20260505235017 78 90 1.7 3.5 0.00 0.00 0.00 48 1012.4
20260505234017 78 90 0.9 3.5 0.00 0.00 0.00 47 1012.4
20260505233016 79 90 1.7 4.3 0.00 0.00 0.00 46 1012.4
20260505232037 79 90 0.9 2.6 0.00 0.00 0.00 45 1012.4
20260505231017 80 338 0.9 6.1 0.00 0.00 0.00 44 1012.3
20260505230017 80 90 0.9 3.5 0.00 0.00 0.00 43 1012.4
20260505225017 81 270 0.9 3.5 0.00 0.00 0.00 40 1012.4
20260505224036 81 270 1.7 6.1 0.00 0.00 0.00 39 1012.4
20260505223017 82 0 2.6 7.8 0.00 0.00 0.00 39 1012.4
20260505222017 82 90 1.7 5.2 0.00 0.00 0.00 39 1012.4
20260505221017 82 270 2.6 10.4 0.00 0.00 0.00 37 1012.5
20260505220017 83 338 1.7 7.0 0.00 0.00 0.00 37 1012.3
20260505215017 83 293 1.7 6.1 0.00 0.00 0.00 36 1012.3
20260505214016 82 293 2.6 9.6 0.00 0.00 0.00 36 1012.3
20260505213016 83 270 5.2 12.2 0.00 0.00 0.00 34 1012.3
20260505212016 84 0 2.6 7.0 0.00 0.00 0.00 35 1012.1
20260505211017 84 0 3.5 8.7 0.00 0.00 0.00 35 1012.2
20260505210017 84 90 3.5 12.2 0.00 0.00 0.00 35 1012.3
20260505205017 84 315 2.6 8.7 0.00 0.00 0.00 35 1012.4
20260505204017 84 270 2.6 8.7 0.00 0.00 0.00 35 1012.1
20260505203016 85 293 4.3 11.3 0.00 0.00 0.00 34 1012.1
20260505202016 86 270 2.6 6.1 0.00 0.00 0.00 34 1012.2
20260505201016 85 270 3.5 11.3 0.00 0.00 0.00 33 1012.4
20260505200017 86 293 3.5 7.0 0.00 0.00 0.00 33 1012.5
20260505195016 86 68 4.3 17.4 0.00 0.00 0.00 32 1012.7
20260505194016 86 45 2.6 8.7 0.00 0.00 0.00 35 1012.7
20260505193016 86 293 1.7 6.1 0.00 0.00 0.00 35 1012.8
20260505192016 86 293 3.5 15.6 0.00 0.00 0.00 33 1013.0
20260505191036 86 23 2.6 8.7 0.00 0.00 0.00 33 1013.0
20260505190036 86 90 2.6 7.8 0.00 0.00 0.00 33 1013.3
20260505185016 86 0 2.6 8.7 0.00 0.00 0.00 34 1013.2
20260505184016 86 45 1.7 4.3 0.00 0.00 0.00 33 1013.5
20260505183036 86 270 2.6 11.3 0.00 0.00 0.00 35 1013.3
20260505182016 85 315 3.5 13.9 0.00 0.00 0.00 34 1013.7
20260505181016 85 113 2.6 6.1 0.00 0.00 0.00 35 1013.7
20260505180017 85 293 2.6 7.0 0.00 0.00 0.00 36 1013.8
20260505175016 84 270 2.6 7.8 0.00 0.00 0.00 40 1013.9
20260505174016 84 23 2.6 8.7 0.00 0.00 0.00 39 1014.1
20260505173036 84 270 2.6 6.1 0.00 0.00 0.00 41 1014.0
20260505172016 84 90 1.7 10.4 0.00 0.00 0.00 42 1014.1
20260505171036 84 270 1.7 5.2 0.00 0.00 0.00 43 1014.2
20260505170056 84 68 2.6 6.1 0.00 0.00 0.00 43 1014.4
20260505165016 84 270 1.7 6.1 0.00 0.00 0.00 43 1014.4
20260505164016 83 45 1.7 5.2 0.00 0.00 0.00 43 1014.5
20260505163016 83 293 1.7 4.3 0.00 0.00 0.00 44 1014.6
20260505162016 82 45 1.7 4.3 0.00 0.00 0.00 45 1014.8
20260505161016 81 90 2.6 6.1 0.00 0.00 0.00 47 1015.0
20260505153016 80 90 1.7 4.3 0.00 0.00 0.00 50 1015.5
20260505152016 79 23 0.9 5.2 0.00 0.00 0.00 51 1015.5
20260505151016 78 90 1.7 6.1 0.00 0.00 0.00 52 1015.4
20260505125016 64 270 0.9 5.2 0.00 0.00 0.00 71 1015.4
20260505124016 63 270 1.7 4.3 0.00 0.00 0.00 73 1015.4
20260505123017 62 270 0.9 3.5 0.00 0.00 0.00 74 1015.5
20260505122016 62 270 0.9 4.3 0.00 0.00 0.00 74 1015.4
20260505121016 62 293 1.7 7.0 0.00 0.00 0.00 75 1015.3
20260505120017 61 293 0.9 4.3 0.00 0.00 0.00 75 1015.3
20260505115016 61 315 0.9 2.6 0.00 0.00 0.00 76 1015.2
20260505114016 61 270 0.9 4.3 0.00 0.00 0.00 76 1015.1
20260505113016 60 270 0.9 3.5 0.00 0.00 0.00 77 1015.0
20260505112016 60 293 0.9 2.6 0.00 0.00 0.00 77 1015.0
20260505111016 60 293 0.9 4.3 0.00 0.00 0.00 77 1014.9
20260505102016 60 0.0 1.7 0.00 0.00 0.00 77 1014.5
20260505101016 60 293 0.9 2.6 0.00 0.00 0.00 76 1014.4
20260505100015 60 270 0.9 5.2 0.00 0.00 0.00 76 1014.5
20260505095016 60 270 0.9 4.3 0.00 0.00 0.00 75 1014.5
20260505094016 61 270 0.9 2.6 0.00 0.00 0.00 74 1014.5
20260505093016 61 0.0 3.5 0.00 0.00 0.00 74 1014.4
20260505092016 61 270 0.9 4.3 0.00 0.00 0.00 74 1014.5
20260505091016 62 293 1.7 4.3 0.00 0.00 0.00 73 1014.3
20260505090016 62 338 0.9 3.5 0.00 0.00 0.00 73 1014.3
20260505085036 62 270 1.7 6.1 0.00 0.00 0.00 72 1014.3
20260505084016 62 270 0.9 5.2 0.00 0.00 0.00 72 1014.4
20260505083015 62 270 1.7 5.2 0.00 0.00 0.00 71 1014.3
20260505082036 63 270 0.9 3.5 0.00 0.00 0.00 71 1014.2
20260505081036 63 270 1.7 7.0 0.00 0.00 0.00 70 1014.2
20260505080036 63 270 0.9 5.2 0.00 0.00 0.00 70 1014.2
20260505075016 63 293 0.9 3.5 0.00 0.00 0.00 69 1014.2
20260505074056 63 293 0.9 2.6 0.00 0.00 0.00 68 1014.2
20260505073016 63 0.0 2.6 0.00 0.00 0.00 67 1014.1
20260505072016 63 270 0.9 2.6 0.00 0.00 0.00 66 1014.0
20260505071016 64 248 0.9 4.3 0.00 0.00 0.00 66 1013.8
20260505070016 64 0.0 2.6 0.00 0.00 0.00 65 1013.9
20260505065015 64 270 0.9 4.3 0.00 0.00 0.00 64 1013.7
20260505064016 64 270 0.9 4.3 0.00 0.00 0.00 63 1013.8
20260505063016 64 293 1.7 6.1 0.00 0.00 0.00 63 1013.7
20260505062016 64 270 0.9 4.3 0.00 0.00 0.00 62 1013.6
20260505061015 65 293 0.9 4.3 0.00 0.00 0.00 61 1013.7
20260505060015 65 293 0.9 1.7 0.00 0.00 0.00 60 1013.7
20260505055016 65 68 0.9 3.5 0.00 0.00 0.00 59 1013.8
20260505054016 66 0.0 2.6 0.00 0.00 0.00 58 1013.8
20260505053016 66 0.0 1.7 0.00 0.00 0.00 57 1013.7
20260505052035 66 270 0.9 3.5 0.00 0.00 0.00 57 1013.8
20260505051015 67 270 0.9 4.3 0.00 0.00 0.00 56 1013.7
20260505041016 66 0.0 0.0 0.00 0.00 0.00 57 1013.3
20260505040015 66 0.0 2.6 0.00 0.00 0.00 57 1013.2
20260505035015 66 0.0 0.9 0.00 0.00 0.00 58 1013.2
20260505034015 64 0.0 0.0 0.00 0.00 0.00 60 1013.2